Wind_Speed
19 17 16 13 6 9 14 12 12 8 9 13 15 15 10 7 6 5 8 11 9 2 10 10 11 15 17 13 11 10 9 9 8 9 9 9 12 12 12 11 12 11 9 9 8 8 9 10 11
20 19 17 14 11 18 15 13 11 11 11 13 14 15 10 8 8 7 9 9 5 5 8 11 12 10 7 7 7 7 8 9 10 11 12 12 13 12 13 13 14 12 11 11 10 8 9 11 12
21 20 15 11 17 25 14 11 11 16 18 16 14 16 13 9 7 5 6 4 3 4 8 11 5 5 4 5 6 6 8 10 11 13 14 15 13 14 16 13 15 14 13 11 11 10 10 12 13
21 21 22 20 22 15 14 10 12 16 18 20 16 10 18 14 8 6 5 2 2 5 8 7 4 5 4 4 5 6 7 10 13 15 15 17 17 17 20 17 18 14 13 12 14 12 12 12 14
22 20 20 22 29 23 16 11 15 16 14 13 21 14 14 14 10 6 6 3 4 5 6 3 5 6 7 6 5 6 8 10 11 14 17 18 21 22 16 22 16 20 21 16 14 14 14 14 16
21 21 23 30 27 23 22 18 19 19 14 14 21 17 18 17 12 9 7 5 5 6 5 5 8 8 8 7 7 7 8 10 12 15 17 19 17 20 18 17 19 27 25 20 17 21 20 17 17
24 22 31 28 26 23 20 20 23 19 16 16 22 20 17 20 15 12 9 8 7 6 5 8 9 8 8 8 10 10 9 11 13 15 18 20 20 19 22 21 25 21 16 18 22 26 31 23 18
24 24 29 30 29 29 20 18 17 18 17 29 24 18 18 26 20 15 12 10 9 7 7 9 11 8 8 9 11 12 12 12 16 18 20 22 22 23 23 23 25 23 20 16 20 24 18 26 27
28 27 34 29 23 23 26 15 12 20 22 22 22 23 25 26 26 20 16 12 11 10 9 10 13 11 11 11 12 13 13 14 17 21 23 23 24 24 25 24 24 22 20 22 23 24 26 29 27
36 33 36 25 25 18 19 19 14 15 14 18 16 21 25 26 27 23 17 13 11 12 13 13 14 14 13 12 13 15 14 14 18 21 23 24 24 24 24 24 23 23 21 23 26 26 28 25 27
36 44 27 27 28 26 29 23 20 21 21 19 16 19 23 27 28 28 23 18 15 13 15 17 15 17 15 14 14 15 14 13 17 18 20 23 22 22 24 25 25 24 23 25 25 29 24 30 26
37 34 32 30 31 31 34 26 26 24 25 26 27 27 25 23 28 29 27 23 21 18 18 19 18 18 16 15 15 15 14 11 12 12 16 19 22 24 24 23 23 23 22 23 29 22 21 27 26
36 31 28 33 36 34 34 35 33 32 25 23 31 36 30 26 28 29 31 30 26 24 20 18 19 19 18 17 17 15 15 11 11 12 14 17 20 21 21 21 22 23 24 25 27 26 22 28 26
21 29 32 27 31 36 37 38 32 30 30 25 28 33 37 31 29 29 31 29 27 22 20 18 20 20 19 18 17 15 15 12 12 14 13 16 18 20 21 22 22 22 24 29 30 26 27 30 28
27 28 23 24 24 33 33 39 37 33 33 33 30 30 33 37 34 33 31 31 30 26 22 18 19 20 18 18 18 16 15 13 13 17 16 17 19 20 22 22 22 21 24 24 29 33 29 33 31
23 26 30 27 26 28 28 44 19 17 21 24 26 27 30 33 37 37 32 32 33 32 28 21 20 20 18 18 18 17 16 15 14 16 17 20 19 20 22 24 22 20 22 21 34 34 34 27 37
20 25 21 20 19 17 24 29 19 23 24 26 24 26 24 26 32 37 37 32 34 35 32 27 23 21 20 18 17 17 17 17 15 16 19 20 20 21 22 23 20 22 25 22 31 35 32 38 38
23 20 24 22 17 19 24 29 22 21 19 19 20 19 21 29 31 30 37 37 37 37 36 31 27 25 23 21 17 16 16 16 14 16 20 20 20 22 22 23 20 20 13 19 35 37 37 35 39
21 21 21 16 16 18 26 28 26 25 27 26 26 31 33 34 34 33 32 39 40 38 39 35 32 28 25 24 18 15 15 16 14 16 19 19 18 19 25 23 19 16 8 14 25 32 42 35 40
24 20 20 18 20 21 25 30 28 29 31 31 32 34 35 35 36 37 39 39 41 42 41 41 35 33 29 26 22 17 17 18 14 16 18 18 17 14 18 22 23 18 13 11 25 25 43 40 43
26 25 19 18 15 21 23 29 20 14 19 21 27 30 34 35 35 37 41 40 43 43 42 43 39 36 35 29 26 21 18 18 15 16 18 16 16 15 18 25 25 25 18 11 12 21 37 39 36
25 19 19 16 12 10 3 7 14 12 6 6 10 14 17 22 27 34 41 43 43 42 40 43 37 38 37 33 28 22 17 18 14 16 18 15 15 15 17 20 29 27 23 25 19 16 19 23 28
22 17 12 13 13 14 16 10 4 5 7 4 11 12 15 21 30 31 34 44 47 38 42 43 38 38 38 35 29 24 18 18 15 15 17 16 13 15 17 20 23 28 28 26 28 24 26 29 30
13 10 7 6 7 8 18 15 6 3 6 9 10 14 14 14 19 24 32 37 42 43 43 40 38 37 37 34 30 26 20 19 15 15 16 16 14 15 18 19 25 25 32 28 27 30 33 29 30
13 14 6 5 5 6 5 10 13 9 4 12 14 17 17 18 16 19 22 29 35 42 39 37 38 37 36 33 30 28 22 19 16 15 15 16 14 14 17 18 20 27 26 31 30 30 36 40 36
19 18 6 7 5 5 6 8 3 4 6 11 14 19 26 25 20 17 19 25 33 37 37 35 37 38 36 32 31 29 24 20 16 15 15 15 13 13 14 16 20 23 32 33 26 27 30 31 31
16 13 9 3 1 3 7 7 7 3 7 11 15 21 25 25 22 18 18 23 32 36 34 34 36 36 34 34 33 30 25 20 17 16 15 15 11 9 12 15 16 19 24 28 34 34 34 36 32
9 13 5 6 5 5 5 5 3 6 11 13 17 22 22 22 20 16 14 21 31 33 32 33 34 34 37 35 32 32 26 22 19 16 15 14 10 10 13 13 11 13 16 19 21 24 29 29 31
12 8 4 4 1 2 1 5 3 8 14 15 18 20 27 28 22 16 17 22 30 30 30 32 32 29 34 34 34 33 28 23 21 18 16 13 10 11 12 13 11 10 8 11 15 18 20 24 29
10 9 6 5 6 3 0 4 4 12 18 18 19 20 26 26 27 19 16 27 32 33 30 30 30 36 33 33 37 35 29 25 23 21 19 15 12 9 11 11 10 9 9 9 11 13 18 21 15
Wind_Direction
247 246 249 252 243 233 241 241 218 210 217 219 198 191 196 214 209 269 299 350 344 250 203 219 248 266 275 264 251 244 238 236 231 227 232 235 243 251 260 263 273 269 265 259 245 234 232 225 218
244 244 244 239 233 235 241 228 227 215 217 204 197 203 208 225 228 284 330 360 348 220 248 272 286 282 264 249 237 238 240 238 230 226 231 228 237 242 255 251 261 256 256 252 240 233 233 230 225
242 240 235 232 239 240 247 238 225 225 222 208 203 204 219 231 236 302 338 0 324 277 298 321 301 295 279 261 263 261 249 241 234 234 234 237 232 235 243 244 242 243 239 237 236 247 236 233 223
239 238 237 234 235 238 239 252 212 230 229 216 209 224 229 226 243 289 324 352 324 288 313 322 295 301 297 285 277 276 272 258 244 236 236 238 242 239 232 231 230 223 229 230 240 246 242 235 220
235 230 233 240 243 239 230 223 212 213 219 211 218 225 226 225 234 276 302 325 287 295 320 21 1 337 325 305 285 277 274 271 257 244 239 241 241 245 256 236 235 293 242 233 243 247 238 231 229
230 223 235 237 245 243 245 231 209 210 219 224 221 229 227 231 243 255 270 284 270 281 294 304 343 331 313 298 295 283 272 268 264 245 242 241 239 243 269 241 256 291 248 232 270 268 244 230 229
221 236 241 246 246 238 248 234 230 227 240 244 230 232 239 238 237 244 248 266 270 273 279 298 327 331 327 311 305 301 287 277 260 254 248 248 246 250 261 254 264 264 260 256 253 284 245 230 219
229 237 247 241 241 250 254 246 234 228 232 247 246 239 240 241 235 239 239 255 263 258 268 284 306 325 320 306 304 305 301 289 269 256 250 247 246 250 255 259 263 273 270 266 265 275 263 250 212
235 236 243 237 241 244 247 256 236 220 221 233 238 231 234 232 222 231 231 243 254 251 261 276 290 302 302 298 302 302 299 297 287 266 253 248 244 247 250 251 262 257 257 263 262 259 260 243 198
232 235 240 243 237 243 239 236 226 230 233 232 235 230 224 217 219 219 226 235 241 250 258 261 275 285 290 287 297 300 299 304 299 272 254 247 247 247 250 252 255 258 254 256 264 268 262 198 191
236 238 241 245 242 253 256 252 241 247 239 230 235 235 227 225 221 224 221 222 228 238 244 252 263 275 287 287 289 297 296 306 305 271 250 245 245 249 250 253 255 259 258 258 262 271 257 196 192
238 239 240 244 251 256 258 261 254 249 248 230 234 232 232 229 229 227 223 228 228 242 246 243 254 267 277 283 285 294 291 300 306 275 255 244 246 250 251 252 253 257 257 257 268 252 207 193 192
238 237 246 246 252 252 258 257 262 258 254 247 241 238 233 230 231 232 233 233 231 236 233 247 250 258 267 275 278 289 287 288 299 283 263 253 248 248 247 247 253 258 252 259 256 220 232 196 192
241 247 242 246 253 251 258 260 263 261 265 261 247 241 233 233 228 229 232 232 238 236 240 242 245 249 261 270 273 283 287 284 288 281 267 257 248 247 249 251 248 253 253 261 257 238 219 197 196
235 246 247 242 243 252 260 262 258 269 269 266 254 250 241 238 230 230 226 226 237 238 236 233 235 240 252 263 266 275 283 288 291 281 271 263 250 246 250 250 250 248 272 275 244 236 200 199 200
233 243 248 250 250 254 251 260 252 261 254 255 253 247 244 241 237 231 228 227 232 238 242 234 234 235 241 254 261 268 279 287 292 284 276 267 257 247 245 249 248 250 268 275 230 208 189 221 204
231 233 234 240 238 234 229 260 259 245 248 254 256 250 249 240 239 233 228 228 231 236 240 236 234 235 236 246 257 267 278 285 288 284 283 269 263 254 245 249 247 256 274 240 219 215 215 200 193
225 232 238 241 244 240 244 257 254 255 258 254 253 250 248 248 245 237 232 228 229 232 239 240 239 234 231 237 252 267 277 281 285 285 284 273 265 254 244 244 239 247 282 227 214 216 206 201 192
238 244 246 246 234 247 257 261 259 256 257 258 255 258 258 254 248 239 236 231 229 231 234 244 242 242 236 236 248 263 273 275 287 286 283 279 269 257 241 238 235 237 260 225 211 206 204 200 194
234 241 243 249 253 261 270 270 267 260 257 259 266 259 258 257 252 245 237 233 231 230 231 237 244 245 242 238 237 249 266 272 284 288 284 279 275 259 238 236 232 228 232 219 224 207 205 200 203
230 237 246 251 259 270 282 287 276 274 254 255 255 255 253 253 252 250 244 239 238 232 231 235 241 243 242 236 233 242 259 267 284 286 281 278 269 264 235 232 231 236 204 201 186 204 196 198 212
229 236 240 248 260 255 273 280 289 274 236 254 268 262 259 255 255 250 242 237 238 235 233 233 235 239 236 231 228 237 252 261 275 279 281 278 266 262 238 229 229 225 224 222 195 200 195 214 221
227 229 228 231 241 270 261 256 251 201 265 224 298 284 275 264 258 252 244 235 233 231 231 233 234 237 228 228 222 227 242 257 270 276 277 278 266 257 240 229 226 217 232 218 211 202 216 218 222
189 163 176 211 231 251 247 226 202 177 277 292 317 317 302 281 276 267 255 239 232 227 228 228 231 229 223 220 216 222 236 251 264 268 271 274 268 252 242 235 222 230 222 224 219 224 233 217 224
185 175 170 191 201 244 190 212 244 276 295 312 323 326 323 317 287 277 264 247 229 225 227 224 229 220 219 209 216 219 228 243 256 259 266 273 270 252 237 234 230 219 215 222 227 228 230 233 232
187 189 221 227 196 159 183 225 158 228 305 329 333 328 318 316 313 297 258 238 219 218 219 224 220 216 214 207 213 214 223 237 247 252 262 273 270 252 230 231 220 217 223 228 242 227 228 227 245
187 210 216 254 238 259 217 241 255 320 327 328 329 321 321 320 310 296 259 240 213 208 213 213 212 205 201 206 210 211 220 233 240 239 255 272 266 232 215 221 215 211 217 224 229 237 235 240 251
178 187 169 196 208 224 187 240 39 342 335 325 327 329 323 324 318 284 251 237 209 203 207 203 196 200 211 208 205 212 217 228 235 231 243 263 261 216 206 209 211 214 226 231 223 231 232 241 244
171 179 177 171 226 282 286 110 72 2 348 339 332 325 319 322 317 299 233 220 203 204 210 203 201 198 216 210 205 212 215 225 232 224 231 247 253 221 208 202 199 199 214 219 209 228 236 241 242
181 182 182 227 182 184 84 284 280 340 335 329 325 308 312 314 312 308 239 209 206 206 207 206 203 215 216 210 205 211 214 222 227 222 222 229 238 227 210 210 217 219 218 224 227 229 233 233 245
Height
3143 3143 3145 3146 3153 3146 3143 3144 3141 3141 3142 3141 3143 3145 3148 3148 3150 3151 3147 3145 3144 3144 3145 3146 3145 3145 3145 3144 3144 3145 3146 3146 3147 3149 3150 3152 3153 3155 3156 3158 3159 3159 3159 3160 3161 3162 3163 3164 3166
3139 3141 3143 3143 3146 3142 3138 3141 3139 3141 3139 3139 3141 3143 3145 3147 3145 3145 3144 3142 3142 3143 3144 3144 3142 3142 3141 3141 3142 3143 3144 3145 3146 3147 3149 3150 3152 3154 3155 3156 3157 3158 3159 3159 3159 3160 3162 3163 3165
3136 3138 3142 3141 3138 3136 3136 3137 3139 3136 3137 3139 3140 3142 3143 3145 3144 3143 3142 3141 3141 3141 3141 3140 3140 3140 3140 3140 3140 3140 3141 3143 3144 3145 3147 3149 3151 3152 3153 3154 3155 3156 3156 3158 3159 3159 3161 3162 3163
3133 3135 3136 3134 3131 3133 3134 3135 3135 3134 3135 3136 3139 3142 3140 3141 3141 3141 3140 3139 3139 3140 3139 3138 3138 3138 3138 3138 3139 3139 3140 3141 3142 3144 3145 3147 3149 3150 3150 3150 3153 3154 3154 3155 3157 3158 3160 3161 3162
3129 3130 3131 3127 3126 3130 3129 3130 3130 3132 3132 3133 3136 3139 3138 3139 3139 3139 3138 3138 3138 3138 3137 3137 3137 3137 3137 3137 3137 3138 3138 3138 3140 3141 3142 3144 3144 3146 3150 3150 3152 3154 3154 3152 3155 3157 3157 3159 3161
3124 3126 3124 3121 3122 3124 3123 3127 3127 3128 3129 3131 3132 3134 3136 3136 3137 3137 3137 3136 3136 3136 3136 3136 3136 3135 3135 3135 3135 3135 3136 3136 3137 3139 3140 3140 3142 3143 3145 3146 3148 3150 3150 3150 3150 3154 3155 3156 3158
3117 3120 3115 3117 3119 3120 3118 3120 3123 3127 3127 3128 3129 3131 3135 3133 3134 3134 3135 3134 3134 3134 3134 3134 3133 3133 3132 3132 3132 3132 3132 3133 3135 3136 3137 3137 3140 3141 3141 3143 3143 3145 3147 3147 3148 3149 3149 3151 3155
3112 3116 3111 3111 3114 3114 3117 3114 3118 3121 3123 3121 3124 3129 3131 3126 3130 3131 3131 3132 3132 3132 3132 3132 3132 3131 3130 3130 3130 3129 3129 3129 3131 3132 3133 3134 3136 3137 3137 3138 3140 3141 3142 3142 3144 3144 3142 3145 3150
3107 3108 3102 3106 3110 3112 3110 3111 3111 3114 3116 3117 3119 3121 3120 3121 3124 3127 3128 3129 3130 3130 3130 3131 3130 3129 3128 3127 3127 3126 3126 3126 3126 3127 3128 3130 3131 3132 3133 3135 3137 3137 3137 3138 3139 3137 3135 3134 3145
3096 3097 3097 3106 3105 3107 3108 3108 3110 3111 3112 3114 3115 3114 3116 3117 3119 3122 3124 3126 3127 3127 3127 3127 3128 3127 3126 3125 3124 3124 3122 3121 3121 3121 3122 3124 3126 3128 3129 3131 3132 3133 3133 3134 3134 3133 3132 3134 3139
3085 3081 3095 3096 3097 3102 3102 3104 3104 3105 3106 3109 3112 3110 3111 3113 3115 3117 3119 3121 3122 3123 3123 3124 3124 3124 3123 3122 3121 3120 3120 3118 3118 3116 3117 3119 3121 3123 3125 3126 3126 3127 3128 3129 3129 3128 3128 3132 3137
3079 3081 3085 3090 3091 3095 3094 3096 3095 3097 3098 3103 3103 3105 3106 3108 3110 3113 3115 3117 3117 3118 3119 3120 3120 3120 3119 3119 3118 3117 3116 3114 3115 3113 3113 3115 3117 3118 3120 3121 3122 3122 3123 3124 3124 3123 3126 3129 3135
3072 3078 3079 3080 3084 3086 3087 3085 3086 3087 3089 3097 3097 3098 3101 3104 3105 3108 3110 3112 3113 3112 3113 3114 3115 3115 3115 3115 3114 3113 3113 3111 3111 3111 3110 3111 3111 3112 3114 3115 3116 3117 3118 3119 3120 3119 3124 3128 3133
3071 3071 3073 3074 3075 3079 3078 3079 3081 3080 3082 3088 3089 3090 3094 3097 3100 3102 3104 3107 3108 3108 3108 3108 3109 3110 3110 3110 3110 3109 3109 3107 3107 3108 3107 3106 3107 3107 3109 3110 3111 3112 3113 3113 3114 3118 3120 3125 3132
3063 3065 3067 3067 3068 3070 3074 3068 3069 3074 3076 3078 3082 3083 3085 3088 3093 3094 3099 3101 3103 3103 3102 3103 3104 3105 3106 3106 3106 3106 3105 3104 3103 3104 3103 3102 3102 3103 3104 3104 3106 3107 3107 3107 3106 3111 3116 3122 3128
3058 3061 3060 3064 3063 3065 3070 3053 3070 3068 3069 3069 3073 3074 3076 3079 3083 3087 3091 3094 3095 3096 3096 3097 3098 3100 3101 3101 3101 3101 3101 3100 3098 3099 3098 3097 3097 3098 3098 3098 3100 3101 3100 3101 3100 3103 3110 3117 3123
3053 3052 3054 3058 3058 3060 3059 3054 3064 3062 3062 3064 3065 3067 3069 3071 3073 3078 3083 3086 3088 3090 3090 3091 3093 3095 3096 3096 3097 3097 3097 3096 3094 3094 3093 3092 3092 3092 3093 3093 3095 3095 3094 3094 3097 3102 3106 3111 3118
3047 3050 3050 3051 3055 3053 3052 3051 3056 3056 3055 3057 3059 3060 3061 3064 3067 3070 3072 3077 3080 3081 3083 3085 3087 3089 3090 3091 3092 3092 3093 3092 3090 3090 3089 3087 3086 3087 3088 3088 3090 3091 3089 3087 3091 3095 3104 3108 3114
3045 3045 3044 3046 3048 3048 3046 3045 3048 3049 3049 3049 3050 3051 3053 3055 3059 3063 3064 3067 3070 3073 3076 3078 3081 3083 3085 3086 3087 3088 3088 3088 3086 3085 3084 3082 3081 3081 3082 3083 3085 3086 3085 3085 3089 3092 3098 3103 3110
3039 3040 3041 3043 3044 3042 3039 3036 3038 3039 3039 3040 3041 3042 3043 3046 3048 3051 3054 3057 3059 3064 3067 3069 3073 3076 3079 3082 3083 3083 3084 3084 3081 3081 3080 3078 3076 3076 3077 3078 3081 3082 3084 3085 3086 3090 3094 3100 3105
3032 3034 3037 3039 3039 3036 3033 3027 3026 3029 3029 3030 3031 3031 3032 3034 3036 3039 3043 3047 3050 3053 3058 3062 3065 3068 3072 3076 3078 3079 3079 3080 3077 3076 3076 3074 3072 3072 3072 3074 3077 3080 3081 3085 3085 3089 3093 3098 3103
3027 3031 3033 3034 3035 3033 3030 3023 3023 3025 3025 3025 3027 3025 3023 3023 3023 3025 3028 3033 3038 3043 3050 3052 3056 3059 3064 3068 3072 3074 3075 3075 3073 3072 3072 3070 3069 3069 3069 3069 3073 3075 3077 3082 3085 3089 3093 3096 3101
3024 3024 3028 3030 3030 3029 3027 3028 3017 3021 3022 3022 3021 3017 3015 3014 3014 3014 3016 3022 3026 3034 3037 3042 3047 3050 3056 3062 3066 3069 3070 3070 3069 3068 3067 3065 3065 3064 3065 3065 3068 3071 3075 3078 3082 3085 3089 3093 3097
3018 3021 3025 3027 3028 3023 3018 3021 3012 3018 3019 3017 3014 3013 3012 3011 3009 3008 3008 3011 3017 3023 3027 3034 3038 3042 3048 3055 3059 3063 3065 3065 3064 3064 3063 3062 3060 3060 3060 3061 3064 3067 3071 3074 3078 3083 3085 3090 3093
3015 3019 3021 3025 3024 3012 3013 3016 3012 3014 3013 3011 3009 3008 3006 3004 3002 3001 3000 3002 3007 3013 3020 3026 3030 3035 3042 3048 3053 3057 3059 3060 3060 3060 3059 3058 3056 3055 3055 3056 3059 3063 3066 3070 3074 3076 3080 3084 3088
3010 3014 3009 3006 3005 3003 3012 3008 3007 3010 3009 3007 3006 3003 2999 2997 2995 2994 2993 2994 2999 3005 3012 3018 3022 3028 3035 3041 3046 3051 3053 3054 3055 3056 3055 3055 3052 3050 3050 3052 3054 3058 3062 3065 3068 3071 3073 3077 3083
3009 3010 3012 3012 3011 3010 3003 3005 3005 3006 3007 3005 3003 2997 2993 2990 2987 2987 2986 2988 2992 2999 3005 3009 3014 3021 3028 3034 3040 3045 3047 3049 3051 3051 3052 3051 3049 3047 3047 3049 3051 3055 3057 3060 3062 3066 3070 3073 3075
3004 3007 3010 3010 3006 3004 2998 3000 3000 3004 3003 3001 2999 2993 2989 2986 2983 2981 2981 2984 2990 2995 2999 3004 3009 3016 3022 3028 3034 3039 3042 3044 3046 3047 3049 3049 3047 3046 3046 3047 3049 3051 3053 3054 3057 3060 3063 3065 3068
3002 3003 3005 3006 3007 3002 2996 2996 3002 3002 3000 2998 2996 2992 2986 2983 2980 2978 2978 2981 2986 2991 2995 3000 3005 3010 3017 3022 3028 3033 3036 3038 3041 3043 3045 3046 3045 3044 3044 3046 3047 3048 3050 3051 3053 3056 3059 3061 3062
2999 3001 3003 3002 3007 3007 3006 3002 2999 2999 2998 2996 2994 2989 2985 2980 2976 2974 2974 2976 2982 2986 2990 2996 3000 3007 3011 3016 3021 3027 3030 3032 3036 3038 3040 3042 3043 3042 3043 3044 3045 3046 3048 3049 3051 3053 3055 3057 3057